• In Uzbekistan
  • List of Countries
  • For 7 days
  • Water Temperature
  • Satellite Maps
  • Weather Map
  • Weather Widgets
  • user-avatar
    Login

    Hourly Weather Vyshneve (Radyans'ke)

    Today, 18 December, Monday

    Time Temperature Precipitation Wind Pressure Humidity
    00:00 +7°C° 1.4 mm 5 mps 748 mmHg 91%
    01:00 +7°C° 1.4 mm 5 mps 748 mmHg 91%
    02:00 +7°C° 0 mm 5 mps 748 mmHg 90%
    03:00 +7°C° 1 mm 5 mps 747 mmHg 90%
    04:00 +7°C° 1 mm 5 mps 747 mmHg 90%
    05:00 +7°C° 1 mm 5 mps 747 mmHg 90%
    06:00 +7°C° 0.6 mm 6 mps 746 mmHg 90%
    07:00 +7°C° 0.6 mm 6 mps 746 mmHg 91%
    08:00 +6°C° 0 mm 7 mps 745 mmHg 90%
    09:00 +8°C° 0.3 mm 7 mps 745 mmHg 90%
    10:00 +8°C° 0.3 mm 7 mps 745 mmHg 89%
    11:00 +9°C° 0.3 mm 7 mps 745 mmHg 89%
    12:00 +7°C° 0 mm 8 mps 745 mmHg 86%
    13:00 +6°C° 0 mm 8 mps 746 mmHg 83%
    14:00 +6°C° 0 mm 8 mps 746 mmHg 80%
    15:00 +5°C° 0 mm 8 mps 747 mmHg 79%
    16:00 +4°C° 0 mm 8 mps 747 mmHg 78%
    17:00 +2°C° 0 mm 8 mps 748 mmHg 76%
    18:00 +2°C° 0 mm 7 mps 749 mmHg 75%
    19:00 +2°C° 0 mm 7 mps 749 mmHg 75%
    20:00 +2°C° 0 mm 7 mps 750 mmHg 74%
    21:00 0°C° 0 mm 7 mps 750 mmHg 74%
    22:00 +1°C° 0 mm 6 mps 751 mmHg 74%
    23:00 -1°C° 0 mm 6 mps 751 mmHg 74%

    Tomorrow, 19 December, Tuesday

    Time Temperature Precipitation Wind Pressure Humidity
    00:00 -1°C° 0 mm 6 mps 752 mmHg 73%
    01:00 -1°C° 0 mm 6 mps 752 mmHg 72%
    02:00 -2°C° 0 mm 6 mps 752 mmHg 72%
    03:00 -2°C° 0 mm 6 mps 752 mmHg 73%
    04:00 -1°C° 0 mm 5 mps 753 mmHg 74%
    05:00 -2°C° 0 mm 5 mps 753 mmHg 75%
    06:00 -2°C° 0 mm 4 mps 753 mmHg 75%
    07:00 -2°C° 0 mm 4 mps 754 mmHg 76%
    08:00 -2°C° 0 mm 4 mps 754 mmHg 76%
    09:00 -1°C° 0 mm 4 mps 754 mmHg 73%
    10:00 -1°C° 0 mm 4 mps 755 mmHg 70%
    11:00 0°C° 0 mm 5 mps 755 mmHg 67%
    12:00 0°C° 0 mm 5 mps 755 mmHg 67%
    13:00 0°C° 0 mm 5 mps 755 mmHg 67%
    14:00 0°C° 0 mm 5 mps 755 mmHg 66%
    15:00 0°C° 0 mm 5 mps 756 mmHg 67%
    16:00 -1°C° 0 mm 4 mps 756 mmHg 68%
    17:00 -1°C° 0 mm 4 mps 756 mmHg 69%
    18:00 -1°C° 0 mm 4 mps 756 mmHg 71%
    19:00 -1°C° 0 mm 4 mps 757 mmHg 72%
    20:00 -1°C° 0 mm 4 mps 757 mmHg 73%
    21:00 -2°C° 0 mm 4 mps 757 mmHg 75%
    22:00 -2°C° 0 mm 4 mps 757 mmHg 76%
    23:00 -1°C° 0 mm 3 mps 757 mmHg 78%

    Day after tomorrow, 20 December, Wednesday

    Time Temperature Precipitation Wind Pressure Humidity
    00:00 -2°C° 0 mm 3 mps 757 mmHg 79%
    01:00 -2°C° 0 mm 3 mps 758 mmHg 80%
    02:00 -2°C° 0 mm 3 mps 758 mmHg 81%
    03:00 -2°C° 0 mm 3 mps 758 mmHg 81%
    04:00 -2°C° 0 mm 3 mps 758 mmHg 82%
    05:00 -2°C° 0 mm 3 mps 758 mmHg 82%
    06:00 -2°C° 0 mm 3 mps 758 mmHg 82%
    07:00 -2°C° 0 mm 3 mps 759 mmHg 81%
    08:00 -2°C° 0 mm 3 mps 759 mmHg 80%
    09:00 -2°C° 0 mm 3 mps 760 mmHg 77%
    10:00 -1°C° 0 mm 3 mps 760 mmHg 73%
    11:00 -1°C° 0 mm 3 mps 760 mmHg 69%
    12:00 -1°C° 0 mm 3 mps 760 mmHg 69%
    13:00 0°C° 0 mm 3 mps 760 mmHg 68%
    14:00 0°C° 0 mm 3 mps 760 mmHg 67%
    15:00 -1°C° 0 mm 2 mps 760 mmHg 68%
    16:00 -1°C° 0 mm 2 mps 761 mmHg 69%
    17:00 +1°C° 0 mm 1 mps 761 mmHg 70%
    18:00 +1°C° 0 mm 1 mps 761 mmHg 70%
    19:00 +1°C° 0 mm 1 mps 762 mmHg 70%
    20:00 +1°C° 0 mm 1 mps 762 mmHg 70%
    21:00 +1°C° 0 mm 1 mps 762 mmHg 70%
    22:00 +1°C° 0 mm 1 mps 762 mmHg 70%
    23:00 +1°C° 0 mm 1 mps 763 mmHg 70%

    21 December, Thursday

    Time Temperature Precipitation Wind Pressure Humidity
    00:00 -1°C° 0 mm 2 mps 763 mmHg 70%
    01:00 -1°C° 0 mm 2 mps 763 mmHg 70%
    02:00 -1°C° 0 mm 2 mps 763 mmHg 70%
    03:00 -2°C° 0 mm 2 mps 763 mmHg 70%
    04:00 -2°C° 0 mm 2 mps 763 mmHg 70%
    05:00 0°C° 0 mm 1 mps 763 mmHg 70%
    06:00 -2°C° 0 mm 2 mps 763 mmHg 70%
    07:00 -2°C° 0 mm 2 mps 764 mmHg 70%
    08:00 -2°C° 0 mm 2 mps 764 mmHg 70%
    09:00 -1°C° 0 mm 2 mps 764 mmHg 67%
    10:00 -1°C° 0 mm 2 mps 764 mmHg 63%
    11:00 +1°C° 0 mm 2 mps 764 mmHg 60%
    12:00 0°C° 0 mm 3 mps 763 mmHg 60%
    13:00 0°C° 0 mm 3 mps 763 mmHg 60%
    14:00 0°C° 0 mm 3 mps 762 mmHg 60%
    15:00 -1°C° 0 mm 2 mps 762 mmHg 63%
    16:00 -1°C° 0 mm 2 mps 762 mmHg 67%
    17:00 0°C° 0 mm 1 mps 762 mmHg 70%
    18:00 -2°C° 0 mm 2 mps 762 mmHg 71%
    19:00 -2°C° 0 mm 2 mps 762 mmHg 72%
    20:00 -2°C° 0 mm 2 mps 761 mmHg 73%
    21:00 -2°C° 0 mm 2 mps 761 mmHg 73%
    22:00 -2°C° 0 mm 2 mps 761 mmHg 73%
    23:00 -3°C° 0 mm 2 mps 761 mmHg 73%

    22 December, Friday

    Time Temperature Precipitation Wind Pressure Humidity
    00:00 -3°C° 0 mm 2 mps 760 mmHg 73%
    01:00 -3°C° 0 mm 2 mps 759 mmHg 73%
    02:00 -3°C° 0 mm 2 mps 759 mmHg 73%
    03:00 -3°C° 0 mm 2 mps 759 mmHg 73%
    04:00 -3°C° 0 mm 2 mps 758 mmHg 73%
    05:00 -3°C° 0 mm 2 mps 758 mmHg 73%
    06:00 -3°C° 0 mm 2 mps 758 mmHg 73%
    07:00 -3°C° 0 mm 2 mps 757 mmHg 74%
    08:00 -3°C° 0 mm 2 mps 757 mmHg 74%
    09:00 -4°C° 0 mm 3 mps 757 mmHg 72%
    10:00 -2°C° 0 mm 3 mps 757 mmHg 70%
    11:00 -2°C° 0 mm 4 mps 756 mmHg 68%
    12:00 -2°C° 0 mm 4 mps 756 mmHg 66%
    13:00 -2°C° 0 mm 4 mps 755 mmHg 65%
    14:00 -1°C° 0 mm 5 mps 755 mmHg 63%
    15:00 -2°C° 0 mm 4 mps 754 mmHg 66%
    16:00 -2°C° 0 mm 4 mps 754 mmHg 70%
    17:00 -2°C° 0 mm 4 mps 754 mmHg 73%
    18:00 -2°C° 0 mm 4 mps 753 mmHg 73%
    19:00 -2°C° 0 mm 4 mps 753 mmHg 73%
    20:00 -2°C° 0 mm 4 mps 753 mmHg 73%
    21:00 -3°C° 0 mm 4 mps 752 mmHg 75%
    22:00 -4°C° 0 mm 5 mps 752 mmHg 76%
    23:00 -4°C° 0 mm 5 mps 752 mmHg 77%

    23 December, Saturday

    Time Temperature Precipitation Wind Pressure Humidity
    00:00 -4°C° 0 mm 5 mps 751 mmHg 79%
    01:00 -4°C° 0 mm 5 mps 751 mmHg 80%
    02:00 -4°C° 0 mm 5 mps 750 mmHg 82%
    03:00 -4°C° 0 mm 5 mps 750 mmHg 84%
    04:00 -4°C° 0 mm 5 mps 750 mmHg 86%
    05:00 -4°C° 0 mm 5 mps 750 mmHg 88%
    06:00 -4°C° 0 mm 5 mps 749 mmHg 87%
    07:00 -4°C° 0 mm 5 mps 749 mmHg 86%
    08:00 -4°C° 0 mm 5 mps 749 mmHg 85%
    09:00 -2°C° 0 mm 5 mps 749 mmHg 82%
    10:00 -2°C° 0 mm 5 mps 749 mmHg 79%
    11:00 -1°C° 0 mm 5 mps 749 mmHg 76%
    12:00 -1°C° 0 mm 5 mps 749 mmHg 76%
    13:00 -1°C° 0 mm 4 mps 749 mmHg 76%
    14:00 -1°C° 0 mm 4 mps 749 mmHg 77%
    15:00 0°C° 0 mm 3 mps 749 mmHg 80%
    16:00 -1°C° 0 mm 3 mps 749 mmHg 83%
    17:00 -1°C° 0 mm 2 mps 749 mmHg 85%
    18:00 -2°C° 0 mm 3 mps 749 mmHg 83%
    19:00 -2°C° 0 mm 3 mps 749 mmHg 82%
    20:00 -2°C° 0 mm 3 mps 750 mmHg 80%
    21:00 -2°C° 0 mm 3 mps 750 mmHg 79%
    22:00 -4°C° 0 mm 3 mps 750 mmHg 79%
    23:00 -4°C° 0 mm 4 mps 750 mmHg 79%
    Show more